Weather History for Nakika, MS

Change the Weather History Date:

Wednesday, April 9, 2014

  Actual Average Record
Temperature  
Mean Temperature 64 °F -  
Max Temperature 68 °F - - ()
Min Temperature 60 °F - - ()
Degree Days  
Heating Degree Days 1    
Growing Degree Days 14 (Base 50)    
Moisture  
Dew Point 48 °F    
Average Humidity 55    
Maximum Humidity 72    
Minimum Humidity 43    
Precipitation  
Precipitation 0.00 in - - ()
Sea Level Pressure  
Sea Level Pressure 30.15 in    
Wind  
Wind Speed 12 mph (NW)    
Max Wind Speed 23 mph    
Max Gust Speed 36 mph    
Visibility 10 miles    
Events      
T = Trace of Precipitation, MM = Missing Value Source: NWS Daily Summary

Daily Weather History Graph

Daily Weather History Graph

Search for Another Location

Airport:

Trip Planner

Search our weather history database for the weather conditions in past years. The results will help you decide how hot, cold, wet, or windy it might be!

Date:

Astronomy

Apr. 09, 2014 Rise Set
Actual Time 6:34 AM CDT 7:15 PM CDT
Civil Twilight 6:10 AM CDT 7:39 PM CDT
Nautical Twilight 5:42 AM CDT 8:07 PM CDT
Astronomical Twilight 5:13 AM CDT 8:36 PM CDT
Moon 2:27 PM CDT (4/9) 2:57 AM CDT (4/9)
Length of Visible Light 13h 29m
Length of Day
12h 41m
Waxing Gibbous, 72% of the Moon is Illuminated
Apr 9
Waxing Gibbous
Apr 15
Full
Apr 22
Last Quarter
Apr 29
New
May 6
First Quarter

Hourly Weather History & Observations

Time (CDT) Temp. Dew Point Humidity Pressure Visibility Wind Dir Wind Speed Gust Speed Precip Events Conditions
12:15 AM 62.6 °F 48.2 °F 59% 30.01 in 10.0 mi NW 21.9 mph 32.2 mph N/A   Mostly Cloudy
12:35 AM 62.6 °F 50.0 °F 63% 30.01 in 10.0 mi NW 16.1 mph 35.7 mph N/A   Mostly Cloudy
12:55 AM 62.6 °F 48.2 °F 59% 30.02 in 10.0 mi NW 17.3 mph 31.1 mph N/A   Mostly Cloudy
1:15 AM 62.6 °F 51.8 °F 68% 30.02 in 10.0 mi NW 12.7 mph 25.3 mph N/A   Mostly Cloudy
1:55 AM 62.6 °F 50.0 °F 63% 30.03 in 10.0 mi NW 18.4 mph 32.2 mph N/A   Mostly Cloudy
2:15 AM 62.6 °F 50.0 °F 63% 30.03 in 10.0 mi NW 16.1 mph 32.2 mph N/A   Mostly Cloudy
2:35 AM 62.6 °F 51.8 °F 68% 30.03 in 10.0 mi NW 19.6 mph 31.1 mph N/A   Mostly Cloudy
2:55 AM 62.6 °F 48.2 °F 59% 30.03 in 10.0 mi NW 23.0 mph 32.2 mph N/A   Mostly Cloudy
3:15 AM 60.8 °F 48.2 °F 63% 30.04 in 10.0 mi NW 17.3 mph 31.1 mph N/A   Scattered Clouds
3:35 AM 60.8 °F 50.0 °F 68% 30.04 in 10.0 mi NW 17.3 mph 31.1 mph N/A   Mostly Cloudy
3:55 AM 60.8 °F 50.0 °F 68% 30.05 in 10.0 mi NW 13.8 mph 29.9 mph N/A   Scattered Clouds
4:15 AM 60.8 °F 50.0 °F 68% 30.05 in 10.0 mi NW 23.0 mph 31.1 mph N/A   Mostly Cloudy
4:35 AM 60.8 °F 50.0 °F 68% 30.06 in 10.0 mi NW 20.7 mph 28.8 mph N/A   Mostly Cloudy
4:55 AM 60.8 °F 50.0 °F 68% 30.07 in 10.0 mi NW 21.9 mph 28.8 mph N/A   Overcast
5:15 AM 60.8 °F 50.0 °F 68% 30.08 in - NW 19.6 mph 28.8 mph N/A   Overcast
5:35 AM 60.8 °F 50.0 °F 68% 30.08 in 10.0 mi NW 16.1 mph 31.1 mph N/A   Mostly Cloudy
5:55 AM 60.8 °F 50.0 °F 68% 30.09 in 10.0 mi NW 17.3 mph 29.9 mph N/A   Mostly Cloudy
6:15 AM 60.8 °F 50.0 °F 68% 30.10 in 10.0 mi WNW 13.8 mph 27.6 mph N/A   Overcast
6:35 AM 60.8 °F 51.8 °F 72% 30.11 in 10.0 mi WNW 10.4 mph 24.2 mph N/A   Overcast
6:55 AM 60.8 °F 50.0 °F 68% 30.11 in 10.0 mi NW 11.5 mph 23.0 mph N/A   Mostly Cloudy
7:15 AM 62.6 °F 50.0 °F 63% 30.12 in 10.0 mi Variable 6.9 mph 21.9 mph N/A   Scattered Clouds
7:35 AM 62.6 °F 48.2 °F 59% 30.13 in 10.0 mi Variable 5.8 mph 13.8 mph N/A   Partly Cloudy
7:55 AM 64.4 °F 50.0 °F 59% 30.14 in 9.0 mi WNW 13.8 mph 25.3 mph N/A   Scattered Clouds
8:15 AM 62.6 °F 50.0 °F 63% 30.15 in 10.0 mi Variable 4.6 mph 19.6 mph N/A   Mostly Cloudy
8:35 AM 66.2 °F 50.0 °F 56% 30.16 in 10.0 mi Variable 6.9 mph 18.4 mph N/A   Mostly Cloudy
8:55 AM 66.2 °F 50.0 °F 56% 30.16 in 10.0 mi Calm Calm 11.5 mph N/A   Scattered Clouds
9:15 AM 66.2 °F 50.0 °F 56% 30.17 in 10.0 mi Variable 5.8 mph 12.7 mph N/A   Partly Cloudy
9:35 AM 68.0 °F 50.0 °F 52% 30.17 in 10.0 mi Variable 5.8 mph 18.4 mph N/A   Partly Cloudy
9:55 AM 68.0 °F 50.0 °F 52% 30.18 in 10.0 mi Variable 4.6 mph 15.0 mph N/A   Clear
10:15 AM 68.0 °F 50.0 °F 52% 30.20 in 10.0 mi Variable 5.8 mph 15.0 mph N/A   Clear
10:35 AM 68.0 °F 48.2 °F 49% 30.21 in 10.0 mi Variable 4.6 mph 12.7 mph N/A   Clear
10:55 AM 68.0 °F 48.2 °F 49% 30.21 in 10.0 mi Variable 3.5 mph 18.4 mph N/A   Clear
11:15 AM 68.0 °F 48.2 °F 49% 30.22 in 10.0 mi Variable 6.9 mph 17.3 mph N/A   Clear
11:35 AM 68.0 °F 48.2 °F 49% 30.22 in 10.0 mi Variable 4.6 mph 15.0 mph N/A   Clear
11:55 AM 68.0 °F 48.2 °F 49% 30.22 in 10.0 mi Variable 5.8 mph 16.1 mph N/A   Clear
12:15 PM 68.0 °F 48.2 °F 49% 30.22 in 10.0 mi Variable 4.6 mph 12.7 mph N/A   Clear
12:35 PM 68.0 °F 48.2 °F 49% 30.21 in 10.0 mi Variable 5.8 mph 15.0 mph N/A   Clear
12:55 PM 68.0 °F 48.2 °F 49% 30.21 in 10.0 mi Variable 4.6 mph 13.8 mph N/A   Clear
1:15 PM 68.0 °F 48.2 °F 49% 30.21 in 10.0 mi Variable 4.6 mph 15.0 mph N/A   Clear
1:35 PM 68.0 °F 48.2 °F 49% 30.20 in 10.0 mi Variable 3.5 mph 15.0 mph N/A   Clear
1:55 PM 68.0 °F 46.4 °F 46% 30.20 in 10.0 mi Variable 3.5 mph 13.8 mph N/A   Clear
2:15 PM 68.0 °F 48.2 °F 49% 30.20 in 10.0 mi Variable 6.9 mph 16.1 mph N/A   Clear
2:35 PM 68.0 °F 46.4 °F 46% 30.19 in 10.0 mi Variable 6.9 mph 13.8 mph N/A   Clear
2:55 PM 66.2 °F 46.4 °F 49% 30.19 in 10.0 mi Variable 4.6 mph 15.0 mph N/A   Clear
3:15 PM 68.0 °F 46.4 °F 46% 30.18 in 10.0 mi Variable 5.8 mph 13.8 mph N/A   Clear
3:35 PM 68.0 °F 46.4 °F 46% 30.18 in 10.0 mi Variable 6.9 mph 13.8 mph N/A   Clear
3:55 PM 68.0 °F 46.4 °F 46% 30.17 in 10.0 mi Variable 3.5 mph 11.5 mph N/A   Clear
4:15 PM 68.0 °F 44.6 °F 43% 30.17 in 10.0 mi Variable 5.8 mph 12.7 mph N/A   Clear
4:35 PM 66.2 °F 46.4 °F 49% 30.17 in 10.0 mi NW 8.1 mph 13.8 mph N/A   Clear
4:55 PM 66.2 °F 44.6 °F 46% 30.17 in 10.0 mi Variable 6.9 mph 13.8 mph N/A   Clear
5:15 PM 64.4 °F 42.8 °F 45% 30.17 in 10.0 mi Variable 5.8 mph 12.7 mph N/A   Clear
5:35 PM 64.4 °F 44.6 °F 49% 30.17 in 10.0 mi Variable 5.8 mph 15.0 mph N/A   Clear
5:55 PM 64.4 °F 46.4 °F 52% 30.17 in 10.0 mi NW 8.1 mph - N/A   Clear
6:15 PM 64.4 °F 44.6 °F 49% 30.17 in 10.0 mi Variable 5.8 mph 15.0 mph N/A   Clear
6:35 PM 64.4 °F 44.6 °F 49% 30.18 in 10.0 mi Variable 5.8 mph 11.5 mph N/A   Clear
6:55 PM 64.4 °F 44.6 °F 49% 30.17 in 10.0 mi Variable 6.9 mph 13.8 mph N/A   Clear
7:15 PM 64.4 °F 44.6 °F 49% 30.18 in 10.0 mi Variable 5.8 mph 15.0 mph N/A   Clear
7:35 PM 64.4 °F 44.6 °F 49% 30.18 in 10.0 mi Variable 5.8 mph - N/A   Clear
7:55 PM 64.4 °F 44.6 °F 49% 30.18 in 10.0 mi Variable 4.6 mph - N/A   Clear
8:15 PM 64.4 °F 44.6 °F 49% 30.19 in 10.0 mi Variable 4.6 mph - N/A   Clear
8:35 PM 64.4 °F 44.6 °F 49% 30.19 in 10.0 mi Variable 6.9 mph - N/A   Clear
8:55 PM 64.4 °F 44.6 °F 49% 30.20 in 10.0 mi Variable 5.8 mph - N/A   Clear
9:15 PM 64.4 °F 44.6 °F 49% 30.20 in 10.0 mi Variable 4.6 mph - N/A   Clear
9:35 PM 64.4 °F 44.6 °F 49% 30.21 in 10.0 mi Variable 5.8 mph 11.5 mph N/A   Clear
9:55 PM 64.4 °F 46.4 °F 52% 30.21 in 10.0 mi Variable 4.6 mph 11.5 mph N/A   Clear
10:15 PM 64.4 °F 44.6 °F 49% 30.22 in 10.0 mi Calm Calm - N/A   Clear
10:35 PM 64.4 °F 46.4 °F 52% 30.22 in 10.0 mi Calm Calm - N/A   Clear
10:55 PM 64.4 °F 46.4 °F 52% 30.22 in 10.0 mi NW 5.8 mph - N/A   Clear
11:15 PM 64.4 °F 46.4 °F 52% 30.22 in 10.0 mi Variable 4.6 mph - N/A   Clear
11:35 PM 64.4 °F 46.4 °F 52% 30.23 in 10.0 mi Variable 4.6 mph - N/A   Clear
11:55 PM 64.4 °F 46.4 °F 52% 30.23 in 10.0 mi Calm Calm - N/A   Clear